Terminal Aerodrome Forecast
Issued by NWS

Home | Current Version | Previous Version | Text Only | Print | Product List | Glossary On
Versions: 1 2 3 4 5 6 7 8 9 10 11 12 13 14 15 16 17 18
000
FTUS45 KABQ 300500
TAFLVS
TAF
KLVS 300534Z 3006/0106 19009KT P6SM SKC
     FM301500 25010KT P6SM SKC
     FM301800 24015G25KT P6SM SCT090
     FM010100 25010KT P6SM SKC=

USA.gov is the U.S. government's official web portal to all federal, state and local government web resources and services.